| time (UTC) | temp F | wind direction | speed MPH | gust MPH | rain 1hr in | rain 24hr in | rain mn in | humidity % | barometer mb |
| 20260508213016 | 76 | 44 | 2.0 | 14.0 | 0.00 | 0.00 | 0.00 | 31 | 1009.5 |
| 20260508212507 | 76 | 51 | 6.0 | 14.0 | 0.00 | 0.00 | 0.00 | 31 | 1009.5 |
| 20260508212008 | 76 | 9 | 7.0 | 14.0 | 0.00 | 0.00 | 0.00 | 30 | 1009.6 |
| 20260508211513 | 76 | 22 | 5.0 | 11.0 | 0.00 | 0.00 | 0.00 | 30 | 1009.5 |
| 20260508211004 | 76 | 13 | 5.0 | 11.0 | 0.00 | 0.00 | 0.00 | 31 | 1009.6 |
| 20260508210503 | 76 | 329 | 5.0 | 13.0 | 0.00 | 0.00 | 0.00 | 32 | 1009.5 |
| 20260508210012 | 76 | 50 | 8.0 | 13.0 | 0.00 | 0.00 | 0.00 | 31 | 1009.5 |
| 20260508205504 | 76 | 360 | 5.0 | 11.0 | 0.00 | 0.00 | 0.00 | 31 | 1009.6 |
| 20260508205006 | 75 | 36 | 5.0 | 13.0 | 0.00 | 0.00 | 0.00 | 33 | 1009.5 |
| 20260508204514 | 75 | 55 | 4.0 | 15.0 | 0.00 | 0.00 | 0.00 | 32 | 1009.7 |
| 20260508204007 | 75 | 336 | 10.0 | 15.0 | 0.00 | 0.00 | 0.00 | 33 | 1009.7 |
| 20260508203506 | 74 | 46 | 2.0 | 11.0 | 0.00 | 0.00 | 0.00 | 34 | 1009.7 |
| 20260508203014 | 74 | 32 | 4.0 | 11.0 | 0.00 | 0.00 | 0.00 | 34 | 1009.7 |
| 20260508202510 | 74 | 11 | 5.0 | 10.0 | 0.00 | 0.00 | 0.00 | 33 | 1009.8 |
| 20260508202003 | 74 | 11 | 4.0 | 11.0 | 0.00 | 0.00 | 0.00 | 35 | 1009.8 |
| 20260508201506 | 73 | 42 | 5.0 | 11.0 | 0.00 | 0.00 | 0.00 | 33 | 1009.9 |
| 20260508201004 | 73 | 42 | 5.0 | 11.0 | 0.00 | 0.00 | 0.00 | 34 | 1009.9 |
| 20260508200504 | 73 | 25 | 3.0 | 9.0 | 0.00 | 0.00 | 0.00 | 34 | 1009.8 |
| 20260508200011 | 73 | 348 | 4.0 | 12.0 | 0.00 | 0.00 | 0.00 | 34 | 1009.9 |
| 20260508195506 | 73 | 352 | 6.0 | 12.0 | 0.00 | 0.00 | 0.00 | 33 | 1009.9 |
| 20260508195008 | 73 | 49 | 4.0 | 11.0 | 0.00 | 0.00 | 0.00 | 35 | 1009.9 |
| 20260508194516 | 73 | 22 | 7.0 | 11.0 | 0.00 | 0.00 | 0.00 | 35 | 1010.0 |
| 20260508194008 | 73 | 44 | 5.0 | 9.0 | 0.00 | 0.00 | 0.00 | 34 | 1009.9 |
| 20260508193506 | 73 | 40 | 4.0 | 10.0 | 0.00 | 0.00 | 0.00 | 35 | 1010.0 |
| 20260508193017 | 73 | 352 | 3.0 | 12.0 | 0.00 | 0.00 | 0.00 | 35 | 1010.0 |
| 20260508192507 | 73 | 49 | 6.0 | 12.0 | 0.00 | 0.00 | 0.00 | 36 | 1010.0 |
| 20260508192003 | 74 | 51 | 7.0 | 13.0 | 0.00 | 0.00 | 0.00 | 35 | 1009.8 |
| 20260508191514 | 74 | 335 | 5.0 | 16.0 | 0.00 | 0.00 | 0.00 | 35 | 1009.9 |
| 20260508191008 | 74 | 347 | 8.0 | 17.0 | 0.00 | 0.00 | 0.00 | 33 | 1009.9 |
| 20260508190505 | 75 | 16 | 9.0 | 17.0 | 0.00 | 0.00 | 0.00 | 33 | 1009.8 |
| 20260508190014 | 75 | 33 | 5.0 | 13.0 | 0.00 | 0.00 | 0.00 | 34 | 1009.7 |
| 20260508185506 | 75 | 13 | 8.0 | 12.0 | 0.00 | 0.00 | 0.00 | 35 | 1009.7 |
| 20260508185012 | 75 | 21 | 5.0 | 11.0 | 0.00 | 0.00 | 0.00 | 36 | 1009.7 |
| 20260508184528 | 75 | 63 | 4.0 | 12.0 | 0.00 | 0.00 | 0.00 | 35 | 1009.6 |
| 20260508184009 | 76 | 9 | 7.0 | 12.0 | 0.00 | 0.00 | 0.00 | 33 | 1009.6 |
| 20260508183508 | 76 | 49 | 6.0 | 15.0 | 0.00 | 0.00 | 0.00 | 33 | 1009.5 |
| 20260508183016 | 76 | 9 | 10.0 | 18.0 | 0.00 | 0.00 | 0.00 | 32 | 1009.5 |
| 20260508182506 | 76 | 5 | 6.0 | 18.0 | 0.00 | 0.00 | 0.00 | 32 | 1009.5 |
| 20260508182006 | 76 | 298 | 10.0 | 16.0 | 0.00 | 0.00 | 0.00 | 34 | 1009.5 |
| 20260508181519 | 76 | 340 | 10.0 | 15.0 | 0.00 | 0.00 | 0.00 | 34 | 1009.6 |
| 20260508181007 | 75 | 352 | 7.0 | 15.0 | 0.00 | 0.00 | 0.00 | 36 | 1009.6 |
| 20260508180508 | 75 | 360 | 10.0 | 15.0 | 0.00 | 0.00 | 0.00 | 34 | 1009.8 |
| 20260508180018 | 75 | 311 | 8.0 | 14.0 | 0.00 | 0.00 | 0.00 | 36 | 1009.8 |
| 20260508175508 | 75 | 319 | 7.0 | 17.0 | 0.00 | 0.00 | 0.00 | 36 | 1009.7 |
| 20260508175011 | 75 | 311 | 9.0 | 17.0 | 0.00 | 0.00 | 0.00 | 35 | 1009.7 |
| 20260508174518 | 74 | 320 | 9.0 | 13.0 | 0.00 | 0.00 | 0.00 | 36 | 1009.7 |
| 20260508174008 | 74 | 340 | 6.0 | 12.0 | 0.00 | 0.00 | 0.00 | 36 | 1009.6 |
| 20260508173508 | 74 | 323 | 4.0 | 15.0 | 0.00 | 0.00 | 0.00 | 38 | 1009.7 |
| 20260508173017 | 74 | 335 | 11.0 | 14.0 | 0.00 | 0.00 | 0.00 | 38 | 1009.6 |
| 20260508172504 | 73 | 270 | 6.0 | 13.0 | 0.00 | 0.00 | 0.00 | 39 | 1009.5 |
| 20260508172007 | 73 | 317 | 9.0 | 13.0 | 0.00 | 0.00 | 0.00 | 39 | 1009.5 |
| 20260508171515 | 72 | 341 | 5.0 | 14.0 | 0.00 | 0.00 | 0.00 | 41 | 1009.5 |
| 20260508171005 | 72 | 24 | 6.0 | 14.0 | 0.00 | 0.00 | 0.00 | 42 | 1009.6 |
| 20260508170507 | 72 | 316 | 8.0 | 14.0 | 0.00 | 0.00 | 0.00 | 43 | 1009.8 |
| 20260508170026 | 72 | 347 | 7.0 | 14.0 | 0.00 | 0.00 | 0.00 | 44 | 1009.7 |
| 20260508165507 | 72 | 352 | 8.0 | 14.0 | 0.00 | 0.00 | 0.00 | 44 | 1009.8 |
| 20260508165007 | 72 | 285 | 9.0 | 16.0 | 0.00 | 0.00 | 0.00 | 43 | 1009.8 |
| 20260508164521 | 72 | 327 | 11.0 | 16.0 | 0.00 | 0.00 | 0.00 | 42 | 1010.0 |
| 20260508164007 | 73 | 301 | 11.0 | 16.0 | 0.00 | 0.00 | 0.00 | 42 | 1010.0 |
| 20260508163508 | 73 | 347 | 10.0 | 16.0 | 0.00 | 0.00 | 0.00 | 42 | 1010.0 |
| 20260508163011 | 73 | 321 | 7.0 | 16.0 | 0.00 | 0.00 | 0.00 | 42 | 1009.9 |
| 20260508162507 | 73 | 325 | 9.0 | 17.0 | 0.00 | 0.00 | 0.00 | 43 | 1009.9 |
| 20260508162010 | 72 | 313 | 9.0 | 17.0 | 0.00 | 0.00 | 0.00 | 42 | 1009.8 |
| 20260508161516 | 72 | 310 | 9.0 | 16.0 | 0.00 | 0.00 | 0.00 | 45 | 1009.8 |
| 20260508161009 | 70 | 323 | 8.0 | 16.0 | 0.00 | 0.00 | 0.00 | 46 | 1009.8 |
| 20260508160506 | 69 | 331 | 8.0 | 13.0 | 0.00 | 0.00 | 0.00 | 48 | 1009.8 |
| 20260508160023 | 68 | 338 | 9.0 | 13.0 | 0.00 | 0.00 | 0.00 | 48 | 1009.9 |
| 20260508155510 | 68 | 351 | 6.0 | 13.0 | 0.00 | 0.00 | 0.00 | 48 | 1010.0 |
| 20260508155006 | 68 | 328 | 9.0 | 13.0 | 0.00 | 0.00 | 0.00 | 49 | 1010.0 |
| 20260508154521 | 67 | 323 | 7.0 | 13.0 | 0.00 | 0.00 | 0.00 | 48 | 1010.0 |
| 20260508154009 | 67 | 346 | 9.0 | 13.0 | 0.00 | 0.00 | 0.00 | 49 | 1010.0 |
| 20260508153507 | 67 | 271 | 4.0 | 9.0 | 0.00 | 0.00 | 0.00 | 49 | 1009.9 |
| 20260508153014 | 67 | 277 | 6.0 | 9.0 | 0.00 | 0.00 | 0.00 | 50 | 1009.9 |
| 20260508152508 | 66 | 313 | 2.0 | 3.0 | 0.00 | 0.00 | 0.00 | 52 | 1009.9 |
| 20260508152010 | 65 | 265 | 1.0 | 4.0 | 0.00 | 0.00 | 0.00 | 52 | 1010.0 |
| 20260508151523 | 65 | 290 | 1.0 | 4.0 | 0.00 | 0.00 | 0.00 | 53 | 1010.0 |
| 20260508151008 | 64 | 246 | 1.0 | 4.0 | 0.00 | 0.00 | 0.00 | 53 | 1009.8 |
| 20260508150512 | 63 | 329 | 1.0 | 7.0 | 0.00 | 0.00 | 0.00 | 53 | 1009.6 |
| 20260508150023 | 62 | 336 | 3.0 | 7.0 | 0.00 | 0.00 | 0.00 | 54 | 1009.5 |
| 20260508145508 | 62 | 316 | 3.0 | 5.0 | 0.00 | 0.00 | 0.00 | 55 | 1009.6 |
| 20260508145007 | 61 | 266 | 2.0 | 5.0 | 0.00 | 0.00 | 0.00 | 56 | 1009.5 |
| 20260508144543 | 61 | 262 | 1.0 | 3.0 | 0.00 | 0.00 | 0.00 | 57 | 1009.6 |
| 20260508144008 | 60 | 278 | 1.0 | 2.0 | 0.00 | 0.00 | 0.00 | 55 | 1009.4 |
| 20260508143507 | 60 | 275 | 1.0 | 2.0 | 0.00 | 0.00 | 0.00 | 57 | 1009.5 |
| 20260508143016 | 60 | 339 | 0.0 | 6.0 | 0.00 | 0.00 | 0.00 | 56 | 1009.2 |
| 20260508142510 | 60 | 351 | 2.0 | 6.0 | 0.00 | 0.00 | 0.00 | 58 | 1009.5 |
| 20260508142003 | 59 | 284 | 0.0 | 4.0 | 0.00 | 0.00 | 0.00 | 61 | 1009.7 |
| 20260508141504 | 59 | 245 | 0.0 | 3.0 | 0.00 | 0.00 | 0.00 | 60 | 1009.3 |
| 20260508141003 | 58 | 254 | 0.0 | 3.0 | 0.00 | 0.00 | 0.00 | 61 | 1009.7 |
| 20260508140503 | 58 | 236 | 2.0 | 3.0 | 0.00 | 0.00 | 0.00 | 60 | 1009.7 |
| 20260508140010 | 58 | 206 | 0.0 | 5.0 | 0.00 | 0.00 | 0.00 | 60 | 1009.5 |
| 20260508135504 | 58 | 179 | 2.0 | 5.0 | 0.00 | 0.00 | 0.00 | 60 | 1009.3 |
| 20260508135005 | 57 | 207 | 1.0 | 4.0 | 0.00 | 0.00 | 0.00 | 60 | 1009.5 |
| 20260508134511 | 57 | 194 | 2.0 | 6.0 | 0.00 | 0.00 | 0.00 | 60 | 1009.5 |
| 20260508134008 | 57 | 195 | 3.0 | 6.0 | 0.00 | 0.00 | 0.00 | 61 | 1009.5 |
| 20260508133508 | 57 | 216 | 2.0 | 5.0 | 0.00 | 0.00 | 0.00 | 61 | 1009.7 |
| 20260508133029 | 57 | 208 | 2.0 | 5.0 | 0.00 | 0.00 | 0.00 | 61 | 1009.5 |
| 20260508132506 | 56 | 213 | 1.0 | 5.0 | 0.00 | 0.00 | 0.00 | 61 | 1009.6 |
| 20260508132003 | 56 | 236 | 1.0 | 5.0 | 0.00 | 0.00 | 0.00 | 61 | 1009.5 |
| 20260508131504 | 56 | 225 | 1.0 | 6.0 | 0.00 | 0.00 | 0.00 | 61 | 1009.4 |
| 20260508131004 | 56 | 236 | 2.0 | 7.0 | 0.00 | 0.00 | 0.00 | 61 | 1009.5 |
| 20260508130505 | 56 | 210 | 4.0 | 7.0 | 0.00 | 0.00 | 0.00 | 61 | 1009.4 |
| 20260508130010 | 56 | 211 | 2.0 | 5.0 | 0.00 | 0.00 | 0.00 | 60 | 1009.3 |
| 20260508125507 | 56 | 224 | 2.0 | 2.0 | 0.00 | 0.00 | 0.00 | 60 | 1009.1 |
| 20260508125007 | 55 | 171 | 0.0 | 4.0 | 0.00 | 0.00 | 0.00 | 59 | 1009.0 |
| 20260508124519 | 55 | 221 | 0.0 | 5.0 | 0.00 | 0.00 | 0.00 | 60 | 1009.1 |
| 20260508124010 | 55 | 240 | 1.0 | 6.0 | 0.00 | 0.00 | 0.00 | 60 | 1009.3 |
| 20260508123507 | 55 | 192 | 3.0 | 6.0 | 0.00 | 0.00 | 0.00 | 60 | 1008.7 |
| 20260508123026 | 55 | 173 | 2.0 | 5.0 | 0.00 | 0.00 | 0.00 | 60 | 1008.7 |
| 20260508122502 | 55 | 190 | 2.0 | 5.0 | 0.00 | 0.00 | 0.00 | 60 | 1008.7 |
| 20260508122002 | 55 | 174 | 2.0 | 4.0 | 0.00 | 0.00 | 0.00 | 60 | 1009.0 |
| 20260508121508 | 55 | 160 | 1.0 | 4.0 | 0.00 | 0.00 | 0.00 | 59 | 1009.0 |
| 20260508121003 | 55 | 190 | 2.0 | 4.0 | 0.00 | 0.00 | 0.00 | 59 | 1009.0 |
| 20260508120509 | 55 | 196 | 0.0 | 4.0 | 0.00 | 0.00 | 0.00 | 59 | 1009.1 |
| 20260508120016 | 55 | 209 | 2.0 | 4.0 | 0.00 | 0.00 | 0.00 | 59 | 1009.2 |
| 20260508115507 | 55 | 214 | 0.0 | 3.0 | 0.00 | 0.00 | 0.00 | 58 | 1009.2 |
| 20260508115008 | 55 | 218 | 0.0 | 3.0 | 0.00 | 0.00 | 0.00 | 57 | 1009.2 |
| 20260508114523 | 55 | 201 | 0.0 | 4.0 | 0.00 | 0.00 | 0.00 | 57 | 1009.3 |
| 20260508114011 | 55 | 215 | 1.0 | 4.0 | 0.00 | 0.00 | 0.00 | 56 | 1009.3 |
| 20260508113513 | 56 | 221 | 1.0 | 4.0 | 0.00 | 0.00 | 0.00 | 56 | 1009.2 |
| 20260508113024 | 56 | 237 | 0.0 | 4.0 | 0.00 | 0.00 | 0.00 | 55 | 1009.2 |
| 20260508112502 | 56 | 242 | 1.0 | 3.0 | 0.00 | 0.00 | 0.00 | 55 | 1009.3 |
| 20260508112002 | 56 | 262 | 1.0 | 3.0 | 0.00 | 0.00 | 0.00 | 54 | 1009.2 |
| 20260508111509 | 56 | 264 | 0.0 | 9.0 | 0.00 | 0.00 | 0.00 | 54 | 1009.4 |
| 20260508111009 | 55 | 291 | 2.0 | 9.0 | 0.00 | 0.00 | 0.00 | 55 | 1009.4 |
| 20260508110506 | 55 | 302 | 3.0 | 7.0 | 0.00 | 0.00 | 0.00 | 55 | 1009.6 |
| 20260508110032 | 55 | 232 | 3.0 | 8.0 | 0.00 | 0.00 | 0.00 | 55 | 1009.5 |
| 20260508105512 | 55 | 299 | 4.0 | 8.0 | 0.00 | 0.00 | 0.00 | 55 | 1009.6 |
| 20260508105006 | 55 | 293 | 3.0 | 7.0 | 0.00 | 0.00 | 0.00 | 55 | 1009.7 |
| 20260508104522 | 55 | 280 | 2.0 | 7.0 | 0.00 | 0.00 | 0.00 | 55 | 1009.5 |
| 20260508104009 | 55 | 284 | 3.0 | 7.0 | 0.00 | 0.00 | 0.00 | 55 | 1009.6 |
| 20260508103507 | 55 | 279 | 1.0 | 7.0 | 0.00 | 0.00 | 0.00 | 55 | 1009.5 |
| 20260508103026 | 55 | 300 | 1.0 | 8.0 | 0.00 | 0.00 | 0.00 | 55 | 1009.5 |
| 20260508102503 | 55 | 244 | 3.0 | 9.0 | 0.00 | 0.00 | 0.00 | 55 | 1009.6 |
| 20260508102007 | 54 | 287 | 4.0 | 9.0 | 0.00 | 0.00 | 0.00 | 55 | 1009.6 |
| 20260508101512 | 54 | 297 | 3.0 | 9.0 | 0.00 | 0.00 | 0.00 | 56 | 1009.5 |
| 20260508101007 | 54 | 265 | 3.0 | 9.0 | 0.00 | 0.00 | 0.00 | 56 | 1009.5 |
| 20260508100506 | 54 | 277 | 3.0 | 7.0 | 0.00 | 0.00 | 0.00 | 55 | 1009.5 |
| 20260508100021 | 54 | 286 | 3.0 | 5.0 | 0.00 | 0.00 | 0.00 | 55 | 1009.5 |
| 20260508095508 | 54 | 302 | 2.0 | 4.0 | 0.00 | 0.00 | 0.00 | 55 | 1009.4 |
| 20260508095006 | 54 | 295 | 3.0 | 4.0 | 0.00 | 0.00 | 0.00 | 54 | 1009.4 |
| 20260508094524 | 54 | 294 | 1.0 | 4.0 | 0.00 | 0.00 | 0.00 | 54 | 1009.3 |
| 20260508094011 | 55 | 300 | 3.0 | 5.0 | 0.00 | 0.00 | 0.00 | 54 | 1009.4 |
| 20260508093511 | 55 | 313 | 3.0 | 5.0 | 0.00 | 0.00 | 0.00 | 54 | 1009.5 |
| 20260508093010 | 55 | 316 | 3.0 | 5.0 | 0.00 | 0.00 | 0.00 | 53 | 1009.3 |
| 20260508092506 | 55 | 296 | 2.0 | 6.0 | 0.00 | 0.00 | 0.00 | 53 | 1009.2 |
| 20260508092006 | 55 | 254 | 2.0 | 6.0 | 0.00 | 0.00 | 0.00 | 53 | 1009.2 |
| 20260508091516 | 55 | 297 | 3.0 | 5.0 | 0.00 | 0.00 | 0.00 | 53 | 1009.2 |
| 20260508091007 | 55 | 302 | 3.0 | 5.0 | 0.00 | 0.00 | 0.00 | 53 | 1009.2 |
| 20260508090510 | 55 | 305 | 2.0 | 4.0 | 0.00 | 0.00 | 0.00 | 53 | 1009.2 |
| 20260508090025 | 55 | 294 | 2.0 | 4.0 | 0.00 | 0.00 | 0.00 | 52 | 1009.2 |
| 20260508085507 | 55 | 270 | 2.0 | 5.0 | 0.00 | 0.00 | 0.00 | 53 | 1009.2 |
| 20260508085010 | 55 | 291 | 2.0 | 5.0 | 0.00 | 0.00 | 0.00 | 53 | 1009.2 |
| 20260508084526 | 55 | 286 | 2.0 | 5.0 | 0.00 | 0.00 | 0.00 | 53 | 1009.2 |
| 20260508084011 | 55 | 305 | 3.0 | 5.0 | 0.00 | 0.00 | 0.00 | 52 | 1009.3 |
| 20260508083509 | 56 | 282 | 3.0 | 4.0 | 0.00 | 0.00 | 0.00 | 52 | 1009.3 |
| 20260508083012 | 56 | 300 | 2.0 | 3.0 | 0.00 | 0.00 | 0.00 | 51 | 1009.2 |
| 20260508082509 | 57 | 284 | 1.0 | 3.0 | 0.00 | 0.00 | 0.00 | 49 | 1009.1 |
| 20260508082009 | 57 | 284 | 1.0 | 4.0 | 0.00 | 0.00 | 0.00 | 49 | 1009.2 |
| 20260508081516 | 57 | 272 | 2.0 | 4.0 | 0.00 | 0.00 | 0.00 | 48 | 1009.2 |
| 20260508081007 | 57 | 257 | 2.0 | 5.0 | 0.00 | 0.00 | 0.00 | 48 | 1009.2 |
| 20260508080510 | 58 | 238 | 1.0 | 5.0 | 0.00 | 0.00 | 0.00 | 47 | 1009.2 |
| 20260508080021 | 58 | 274 | 1.0 | 7.0 | 0.00 | 0.00 | 0.00 | 47 | 1009.2 |
| 20260508075510 | 58 | 209 | 2.0 | 7.0 | 0.00 | 0.00 | 0.00 | 47 | 1009.2 |
| 20260508075015 | 58 | 209 | 2.0 | 7.0 | 0.00 | 0.00 | 0.00 | 47 | 1009.2 |
| 20260508074533 | 58 | 234 | 2.0 | 7.0 | 0.00 | 0.00 | 0.00 | 47 | 1009.3 |
| 20260508074010 | 58 | 249 | 1.0 | 4.0 | 0.00 | 0.00 | 0.00 | 46 | 1009.4 |
| 20260508073504 | 59 | 286 | 1.0 | 6.0 | 0.00 | 0.00 | 0.00 | 46 | 1009.5 |
| 20260508073016 | 59 | 303 | 3.0 | 6.0 | 0.00 | 0.00 | 0.00 | 45 | 1009.4 |
| 20260508072503 | 60 | 273 | 2.0 | 6.0 | 0.00 | 0.00 | 0.00 | 44 | 1009.5 |
| 20260508072010 | 60 | 292 | 1.0 | 8.0 | 0.00 | 0.00 | 0.00 | 43 | 1009.5 |
| 20260508071520 | 60 | 232 | 1.0 | 8.0 | 0.00 | 0.00 | 0.00 | 43 | 1009.4 |
| 20260508071006 | 60 | 233 | 2.0 | 7.0 | 0.00 | 0.00 | 0.00 | 43 | 1009.4 |
| 20260508070509 | 61 | 184 | 3.0 | 11.0 | 0.00 | 0.00 | 0.00 | 43 | 1009.4 |
| 20260508070024 | 61 | 221 | 3.0 | 13.0 | 0.00 | 0.00 | 0.00 | 42 | 1009.3 |
| 20260508065511 | 61 | 236 | 6.0 | 13.0 | 0.00 | 0.00 | 0.00 | 42 | 1009.3 |
| 20260508065009 | 61 | 200 | 4.0 | 12.0 | 0.00 | 0.00 | 0.00 | 42 | 1009.3 |
| 20260508064529 | 61 | 218 | 4.0 | 12.0 | 0.00 | 0.00 | 0.00 | 42 | 1009.3 |
| 20260508064011 | 62 | 198 | 4.0 | 8.0 | 0.00 | 0.00 | 0.00 | 41 | 1009.2 |
| 20260508063503 | 62 | 211 | 4.0 | 12.0 | 0.00 | 0.00 | 0.00 | 41 | 1009.2 |
| 20260508063016 | 62 | 236 | 6.0 | 12.0 | 0.00 | 0.00 | 0.00 | 41 | 1009.2 |
| 20260508062507 | 62 | 218 | 6.0 | 15.0 | 0.00 | 0.00 | 0.00 | 40 | 1009.1 |
| 20260508062010 | 63 | 194 | 6.0 | 15.0 | 0.00 | 0.00 | 0.00 | 40 | 1009.1 |
| 20260508061522 | 63 | 213 | 6.0 | 11.0 | 0.00 | 0.00 | 0.00 | 39 | 1009.2 |
| 20260508061009 | 63 | 246 | 4.0 | 10.0 | 0.00 | 0.00 | 0.00 | 39 | 1009.2 |
| 20260508060511 | 63 | 210 | 5.0 | 13.0 | 0.00 | 0.00 | 0.00 | 39 | 1009.2 |
| 20260508060028 | 63 | 246 | 5.0 | 13.0 | 0.00 | 0.00 | 0.00 | 38 | 1009.2 |
| 20260508055511 | 63 | 221 | 4.0 | 17.0 | 0.00 | 0.00 | 0.00 | 38 | 1009.3 |
| 20260508055008 | 63 | 202 | 7.0 | 17.0 | 0.00 | 0.00 | 0.00 | 38 | 1009.3 |
| 20260508054529 | 63 | 200 | 5.0 | 13.0 | 0.00 | 0.00 | 0.00 | 38 | 1009.3 |
| 20260508054005 | 63 | 213 | 5.0 | 11.0 | 0.00 | 0.00 | 0.00 | 37 | 1009.4 |
| 20260508053506 | 63 | 251 | 4.0 | 11.0 | 0.00 | 0.00 | 0.00 | 37 | 1009.3 |
| 20260508053032 | 63 | 231 | 5.0 | 11.0 | 0.00 | 0.00 | 0.00 | 37 | 1009.4 |
| 20260508052513 | 64 | 258 | 5.0 | 10.0 | 0.00 | 0.00 | 0.00 | 37 | 1009.4 |
| 20260508052007 | 64 | 244 | 3.0 | 9.0 | 0.00 | 0.00 | 0.00 | 36 | 1009.4 |
| 20260508051524 | 64 | 213 | 4.0 | 11.0 | 0.00 | 0.00 | 0.00 | 35 | 1009.4 |
| 20260508051010 | 64 | 202 | 4.0 | 11.0 | 0.00 | 0.00 | 0.00 | 35 | 1009.4 |
| 20260508050508 | 64 | 227 | 4.0 | 9.0 | 0.00 | 0.00 | 0.00 | 35 | 1009.4 |
| 20260508050010 | 64 | 239 | 3.0 | 9.0 | 0.00 | 0.00 | 0.00 | 34 | 1009.4 |
| 20260508045505 | 64 | 241 | 4.0 | 10.0 | 0.00 | 0.00 | 0.00 | 34 | 1009.4 |
| 20260508045005 | 65 | 194 | 5.0 | 10.0 | 0.00 | 0.00 | 0.00 | 34 | 1009.4 |
| 20260508044516 | 65 | 236 | 5.0 | 9.0 | 0.00 | 0.00 | 0.00 | 34 | 1009.4 |
| 20260508044007 | 65 | 205 | 4.0 | 9.0 | 0.00 | 0.00 | 0.00 | 34 | 1009.4 |
| 20260508043507 | 65 | 197 | 4.0 | 9.0 | 0.00 | 0.00 | 0.00 | 35 | 1009.4 |
| 20260508043023 | 65 | 212 | 2.0 | 8.0 | 0.00 | 0.00 | 0.00 | 35 | 1009.5 |
| 20260508042504 | 65 | 217 | 2.0 | 8.0 | 0.00 | 0.00 | 0.00 | 34 | 1009.5 |
| 20260508042004 | 65 | 230 | 3.0 | 12.0 | 0.00 | 0.00 | 0.00 | 34 | 1009.5 |
| 20260508041505 | 65 | 205 | 5.0 | 13.0 | 0.00 | 0.00 | 0.00 | 34 | 1009.6 |
| 20260508041004 | 65 | 211 | 6.0 | 13.0 | 0.00 | 0.00 | 0.00 | 34 | 1009.7 |
| 20260508040507 | 65 | 195 | 5.0 | 11.0 | 0.00 | 0.00 | 0.00 | 35 | 1009.8 |
| 20260508040010 | 65 | 194 | 5.0 | 9.0 | 0.00 | 0.00 | 0.00 | 36 | 1009.8 |
| 20260508035505 | 64 | 213 | 4.0 | 8.0 | 0.00 | 0.00 | 0.00 | 36 | 1009.8 |
| 20260508035005 | 64 | 206 | 5.0 | 9.0 | 0.00 | 0.00 | 0.00 | 37 | 1009.9 |
| 20260508034514 | 64 | 206 | 5.0 | 9.0 | 0.00 | 0.00 | 0.00 | 37 | 1009.8 |
| 20260508034008 | 64 | 217 | 4.0 | 9.0 | 0.00 | 0.00 | 0.00 | 37 | 1009.8 |
| 20260508033506 | 64 | 200 | 4.0 | 9.0 | 0.00 | 0.00 | 0.00 | 37 | 1009.8 |
| 20260508033003 | 65 | 185 | 4.0 | 10.0 | 0.00 | 0.00 | 0.00 | 36 | 1009.8 |
| 20260508032503 | 65 | 242 | 4.0 | 12.0 | 0.00 | 0.00 | 0.00 | 36 | 1009.9 |
| 20260508032005 | 65 | 226 | 5.0 | 11.0 | 0.00 | 0.00 | 0.00 | 35 | 1009.9 |
| 20260508031503 | 66 | 190 | 5.0 | 9.0 | 0.00 | 0.00 | 0.00 | 35 | 1009.8 |
| 20260508031003 | 66 | 194 | 3.0 | 9.0 | 0.00 | 0.00 | 0.00 | 35 | 1009.8 |
| 20260508030505 | 66 | 217 | 4.0 | 9.0 | 0.00 | 0.00 | 0.00 | 35 | 1009.7 |
| 20260508030022 | 66 | 202 | 3.0 | 7.0 | 0.00 | 0.00 | 0.00 | 34 | 1009.7 |
| 20260508025506 | 67 | 194 | 2.0 | 5.0 | 0.00 | 0.00 | 0.00 | 34 | 1009.5 |
| 20260508025008 | 67 | 212 | 2.0 | 7.0 | 0.00 | 0.00 | 0.00 | 33 | 1009.5 |
| 20260508024516 | 67 | 205 | 3.0 | 7.0 | 0.00 | 0.00 | 0.00 | 33 | 1009.5 |
| 20260508024008 | 68 | 186 | 2.0 | 7.0 | 0.00 | 0.00 | 0.00 | 32 | 1009.4 |
| 20260508023507 | 68 | 207 | 3.0 | 6.0 | 0.00 | 0.00 | 0.00 | 32 | 1009.3 |
| 20260508023004 | 68 | 212 | 3.0 | 6.0 | 0.00 | 0.00 | 0.00 | 32 | 1009.3 |
| 20260508022503 | 69 | 207 | 3.0 | 6.0 | 0.00 | 0.00 | 0.00 | 31 | 1009.4 |
| 20260508022003 | 69 | 226 | 3.0 | 6.0 | 0.00 | 0.00 | 0.00 | 31 | 1009.3 |
| 20260508021512 | 70 | 211 | 3.0 | 5.0 | 0.00 | 0.00 | 0.00 | 30 | 1009.3 |
| 20260508021004 | 70 | 189 | 2.0 | 5.0 | 0.00 | 0.00 | 0.00 | 30 | 1009.2 |
| 20260508020507 | 70 | 198 | 2.0 | 5.0 | 0.00 | 0.00 | 0.00 | 30 | 1009.1 |
| 20260508020023 | 71 | 193 | 2.0 | 5.0 | 0.00 | 0.00 | 0.00 | 29 | 1009.1 |
| 20260508015506 | 71 | 211 | 2.0 | 5.0 | 0.00 | 0.00 | 0.00 | 29 | 1009.0 |
| 20260508015009 | 72 | 204 | 1.0 | 5.0 | 0.00 | 0.00 | 0.00 | 29 | 1009.0 |
| 20260508014520 | 72 | 219 | 1.0 | 3.0 | 0.00 | 0.00 | 0.00 | 28 | 1009.0 |
| 20260508014007 | 72 | 209 | 1.0 | 4.0 | 0.00 | 0.00 | 0.00 | 28 | 1008.9 |
| 20260508013506 | 73 | 233 | 1.0 | 4.0 | 0.00 | 0.00 | 0.00 | 28 | 1008.9 |
| 20260508013005 | 73 | 219 | 1.0 | 3.0 | 0.00 | 0.00 | 0.00 | 27 | 1008.8 |
| 20260508012504 | 74 | 201 | 1.0 | 5.0 | 0.00 | 0.00 | 0.00 | 27 | 1008.7 |
| 20260508012003 | 74 | 223 | 1.0 | 4.0 | 0.00 | 0.00 | 0.00 | 26 | 1008.8 |
| 20260508011512 | 75 | 200 | 2.0 | 5.0 | 0.00 | 0.00 | 0.00 | 26 | 1008.7 |
| 20260508011007 | 75 | 238 | 2.0 | 7.0 | 0.00 | 0.00 | 0.00 | 26 | 1008.7 |
| 20260508010506 | 75 | 209 | 2.0 | 7.0 | 0.00 | 0.00 | 0.00 | 25 | 1008.7 |
| 20260508010018 | 76 | 234 | 3.0 | 6.0 | 0.00 | 0.00 | 0.00 | 25 | 1008.7 |
| 20260508005507 | 76 | 228 | 1.0 | 8.0 | 0.00 | 0.00 | 0.00 | 25 | 1008.6 |
| 20260508005011 | 76 | 249 | 4.0 | 8.0 | 0.00 | 0.00 | 0.00 | 24 | 1008.6 |
| 20260508004524 | 77 | 214 | 3.0 | 8.0 | 0.00 | 0.00 | 0.00 | 23 | 1008.7 |
| 20260508004003 | 77 | 262 | 2.0 | 10.0 | 0.00 | 0.00 | 0.00 | 23 | 1008.7 |
| 20260508003502 | 77 | 264 | 2.0 | 12.0 | 0.00 | 0.00 | 0.00 | 23 | 1008.7 |
| 20260508003006 | 77 | 239 | 4.0 | 12.0 | 0.00 | 0.00 | 0.00 | 22 | 1008.7 |
| 20260508002502 | 78 | 252 | 4.0 | 11.0 | 0.00 | 0.00 | 0.00 | 22 | 1008.8 |
| 20260508002008 | 78 | 224 | 2.0 | 8.0 | 0.00 | 0.00 | 0.00 | 23 | 1008.7 |
| 20260508001513 | 78 | 305 | 2.0 | 11.0 | 0.00 | 0.00 | 0.00 | 22 | 1008.7 |
| 20260508001007 | 78 | 242 | 5.0 | 11.0 | 0.00 | 0.00 | 0.00 | 22 | 1008.7 |
| 20260508000507 | 78 | 266 | 6.0 | 11.0 | 0.00 | 0.00 | 0.00 | 22 | 1008.7 |
| 20260508000021 | 78 | 280 | 3.0 | 10.0 | 0.00 | 0.00 | 0.00 | 22 | 1008.7 |
| 20260507235507 | 78 | 305 | 3.0 | 14.0 | 0.00 | 0.00 | 0.00 | 22 | 1008.9 |
| 20260507235010 | 79 | 302 | 5.0 | 14.0 | 0.00 | 0.00 | 0.00 | 22 | 1008.8 |
| 20260507234524 | 79 | 284 | 4.0 | 15.0 | 0.00 | 0.00 | 0.00 | 21 | 1008.8 |
| 20260507234004 | 79 | 248 | 7.0 | 15.0 | 0.00 | 0.00 | 0.00 | 21 | 1008.8 |
| 20260507233504 | 79 | 244 | 6.0 | 14.0 | 0.00 | 0.00 | 0.00 | 21 | 1008.8 |
| 20260507233023 | 80 | 229 | 3.0 | 13.0 | 0.00 | 0.00 | 0.00 | 20 | 1008.9 |
| 20260507232507 | 80 | 273 | 6.0 | 13.0 | 0.00 | 0.00 | 0.00 | 20 | 1008.9 |
| 20260507232005 | 81 | 247 | 6.0 | 14.0 | 0.00 | 0.00 | 0.00 | 20 | 1008.9 |
| 20260507231517 | 81 | 234 | 5.0 | 14.0 | 0.00 | 0.00 | 0.00 | 20 | 1008.9 |
| 20260507231006 | 82 | 242 | 5.0 | 11.0 | 0.00 | 0.00 | 0.00 | 20 | 1008.9 |
| 20260507230506 | 81 | 268 | 4.0 | 13.0 | 0.00 | 0.00 | 0.00 | 21 | 1009.0 |
| 20260507230021 | 81 | 298 | 7.0 | 16.0 | 0.00 | 0.00 | 0.00 | 20 | 1009.0 |
| 20260507225508 | 81 | 267 | 5.0 | 16.0 | 0.00 | 0.00 | 0.00 | 21 | 1009.0 |
| 20260507225011 | 81 | 204 | 3.0 | 15.0 | 0.00 | 0.00 | 0.00 | 20 | 1009.1 |
| 20260507224505 | 81 | 313 | 5.0 | 16.0 | 0.00 | 0.00 | 0.00 | 21 | 1009.1 |
| 20260507224008 | 81 | 282 | 10.0 | 16.0 | 0.00 | 0.00 | 0.00 | 20 | 1009.0 |
| 20260507223504 | 81 | 298 | 7.0 | 14.0 | 0.00 | 0.00 | 0.00 | 20 | 1009.1 |
| 20260507223012 | 81 | 303 | 5.0 | 14.0 | 0.00 | 0.00 | 0.00 | 21 | 1009.1 |
| 20260507222511 | 81 | 307 | 8.0 | 15.0 | 0.00 | 0.00 | 0.00 | 19 | 1009.1 |
| 20260507222008 | 81 | 292 | 7.0 | 15.0 | 0.00 | 0.00 | 0.00 | 21 | 1009.2 |
| 20260507221524 | 81 | 286 | 6.0 | 13.0 | 0.00 | 0.00 | 0.00 | 20 | 1009.2 |
| 20260507221009 | 81 | 173 | 7.0 | 13.0 | 0.00 | 0.00 | 0.00 | 20 | 1009.3 |
| 20260507220507 | 81 | 229 | 7.0 | 18.0 | 0.00 | 0.00 | 0.00 | 20 | 1009.3 |
| 20260507220027 | 81 | 244 | 6.0 | 18.0 | 0.00 | 0.00 | 0.00 | 21 | 1009.3 |
| 20260507215512 | 82 | 286 | 8.0 | 22.0 | 0.00 | 0.00 | 0.00 | 20 | 1009.4 |
| 20260507215008 | 82 | 313 | 12.0 | 22.0 | 0.00 | 0.00 | 0.00 | 20 | 1009.5 |
| 20260507214507 | 82 | 244 | 6.0 | 18.0 | 0.00 | 0.00 | 0.00 | 20 | 1009.5 |
| 20260507214004 | 82 | 249 | 8.0 | 18.0 | 0.00 | 0.00 | 0.00 | 20 | 1009.7 |
| 20260507213509 | 82 | 284 | 8.0 | 15.0 | 0.00 | 0.00 | 0.00 | 21 | 1009.7 |